[[{"header":{"parameterUnit":"m.s-1","parameterCategory":1,"la1":30.2991,"la2":30.254,"lo1":-89.0895,"lo2":-89.0444,"dy":0.0017,"dx":0.0017,"nx":28,"ny":28,"refTime":"2025-05-15T03:00:00:Z","depth":0,"parameterNumber":2,"parameterNumberName":"U-component_of_WINDS"},"data":[0,0,0,0,0,0,0,0,0,0,0,0,0,0,0,0,0,0,0,0,0,0,0,0,0,0,0,0,0,0,0,0,0,0,0,0,0,0,0,0,0,0,0,0,0,0,0,0,0,0,0,0,0,0,0,0,0,0,1.6638,1.6639,0,1.6717,1.6718,1.6719,1.6709,1.6707,1.6706,1.6705,1.6787,1.6791,1.6794,0,0,0,0,0,0,0,0,0,0,0,0,0,1.6479,1.6482,1.6638,1.6639,1.664,1.6717,1.6718,1.6719,1.6709,1.6707,1.6706,1.6704,1.6786,1.679,1.6794,0,0,0,0,0,0,0,0,0,0,0,0,0,1.6552,1.6483,1.6638,1.6644,1.6645,1.6717,1.6718,1.6719,1.6709,1.6707,1.6705,1.6704,1.6785,1.679,1.6795,1.6865,0,0,1.6811,1.6813,0,0,0,0,0,0,0,0,1.6548,1.6558,1.6642,1.6644,1.6645,1.6701,1.6692,1.6768,1.671,1.6685,1.6705,1.6703,1.676,1.6767,1.6786,1.6869,1.6873,1.6811,1.6814,1.6816,1.6818,0,0,0,0,0,0,0,1.6543,1.6555,1.6669,1.6643,1.6645,1.6643,1.6652,1.6707,1.6733,1.6687,1.6687,1.6696,1.6761,1.6782,1.6788,1.6874,1.6811,1.6815,1.6819,1.6821,1.7018,1.702,0,0,0,0,0,0,1.6536,1.655,1.6667,1.6672,1.6591,1.6648,1.6657,1.6685,1.6732,1.6737,1.6698,1.6695,1.6774,1.6782,1.6791,1.6876,1.6816,1.6821,1.6824,1.7016,1.7018,1.7021,0,0,0,0,0,0,1.6533,1.6547,1.6663,1.6611,1.6626,1.6653,1.6684,1.6688,1.6708,1.674,1.6745,1.6714,1.6773,1.6784,1.6847,1.6879,1.6823,1.6828,1.7013,1.7016,1.7019,1.7046,0,0,0,0,0,0,1.6528,1.6545,1.6572,1.6612,1.6628,1.6717,1.6686,1.6691,1.6717,1.6715,1.6756,1.6762,1.6772,1.6839,1.6852,1.6885,1.6832,1.701,1.7015,1.7018,1.7043,1.705,1.7057,0,0,0,0,0,1.6523,1.6577,1.6574,1.6588,1.6662,1.6719,1.6729,1.6739,1.672,1.6747,1.6767,1.676,1.6873,1.6846,1.686,1.6895,1.7008,1.7013,1.7018,1.704,1.7049,1.7056,0,0,0,0,0,0,1.6541,1.6582,1.6579,1.6648,1.668,1.6717,1.6752,1.6749,1.6788,1.6784,1.6796,1.6805,1.6868,1.6888,1.6856,1.6965,1.6938,1.6946,1.695,1.6959,1.6965,1.6959,1.6836,0,0,0,0,0,1.6553,1.6596,1.6629,1.6687,1.6703,1.6725,1.675,1.6755,1.6789,1.6803,1.6828,1.6862,1.6905,1.6933,1.6974,1.7046,1.7055,1.7077,1.7084,1.7089,1.7096,1.7135,1.7145,1.7037,1.7037,1.7037,0,0,1.6578,1.6606,1.6632,1.6691,1.6717,1.676,1.6736,1.6784,1.6816,1.681,1.6871,1.689,1.6929,1.6996,1.7027,1.7014,1.7128,1.7096,1.71,1.7103,1.7141,1.7151,1.716,1.704,1.7039,1.7039,0,0,1.6647,1.6672,1.6722,1.6748,1.6787,1.6802,1.6814,1.6852,1.6864,1.6925,1.6921,1.6961,1.7035,1.7062,1.7086,1.7164,1.716,1.7178,1.7214,1.7251,1.726,1.7267,1.7295,1.7305,1.7184,1.7184,1.7185,0,1.6673,1.6738,1.6749,1.6796,1.6822,1.6819,1.687,1.6895,1.6945,1.6964,1.6949,1.7041,1.7067,1.714,1.7159,1.7179,1.7193,1.7173,1.7258,1.7265,1.7273,1.7299,1.7309,1.7186,1.7186,1.7186,1.7186,0,1.6769,1.6814,1.685,1.6899,1.6929,1.6978,1.6996,1.7025,1.7028,1.7044,1.7106,1.7136,1.7184,1.7202,1.7205,1.7276,1.7267,1.7255,1.7228,1.7285,1.7309,1.732,1.7189,1.7188,1.7188,1.7187,0,0,1.685,1.6903,1.6916,1.6938,1.6981,1.7017,1.7066,1.7112,1.7136,1.7172,1.7213,1.7276,1.7265,1.7292,1.7299,1.7332,1.7392,1.7316,1.7317,1.7328,1.7471,1.7478,1.749,1.7389,1.7391,1.7393,1.7467,0,1.6921,1.7008,1.7018,1.7095,1.7137,1.7135,1.7177,1.7209,1.7225,1.7263,1.7281,1.7325,1.7308,1.7324,1.7357,1.7377,1.742,1.7372,1.7428,1.7429,1.7417,1.7503,1.7512,1.7581,1.7477,1.7479,1.748,0,1.7016,1.7054,1.7134,1.7171,1.7189,1.7228,1.727,1.7307,1.7342,1.7352,1.7382,1.7385,1.7436,1.7407,1.7478,1.7445,1.7468,1.7482,1.7485,1.749,1.7457,1.751,1.7603,1.7613,1.7495,1.7494,1.7493,0,1.7066,1.7137,1.7194,1.7213,1.7258,1.7285,1.7305,1.7338,1.7365,1.7403,1.742,1.7464,1.7488,1.7521,1.7536,1.7514,1.7605,1.7578,1.7615,1.7614,1.7633,1.7632,1.7731,1.765,1.765,1.765,1.7649,0,1.7144,1.7193,1.7217,1.7252,1.7307,1.732,1.7374,1.7393,1.7423,1.7462,1.7463,1.75,1.7517,1.7557,1.7568,1.7625,1.7636,1.7645,1.7647,1.7644,1.7643,1.7659,1.7654,1.7652,1.7652,1.7651,1.7651,0,1.7208,1.7226,1.7289,1.7326,1.7337,1.7376,1.7408,1.7442,1.7458,1.7507,1.752,1.7545,1.7592,1.7609,1.7667,1.7675,1.7739,1.7739,1.7727,1.7728,1.7763,1.7759,1.7875,1.789,1.78,1.7801,1.7802,0,1.7256,1.7294,1.7336,1.7362,1.7382,1.7425,1.7452,1.7466,1.7494,1.7538,1.7567,1.7613,1.765,1.7725,1.7749,1.7793,1.7792,1.783,1.7799,1.7794,1.7792,1.7789,1.7793,1.7835,1.7836,1.7837,1.7838,0,1.7339,1.7347,1.7386,1.7428,1.7461,1.7495,1.7528,1.7549,1.7568,1.7601,1.7648,1.7677,1.7735,1.7781,1.7826,1.7847,1.7846,1.7847,1.7858,1.7855,1.7846,1.785,1.7742,1.7844,1.7844,1.7843,1.7843,1.7843,1.7397,1.743,1.7464,1.7508,1.7534,1.7565,1.7599,1.7619,1.7659,1.7707,1.7713,1.7764,1.7799,1.7859,1.7882,1.7922,1.7912,1.7928,1.7932,1.7935,1.7937,1.7841,1.7931,1.7931,1.793,1.793,1.793,0,1.7479,1.7501,1.7541,1.7587,1.7621,1.7617,1.7654,1.7683,1.7727,1.776,1.7797,1.7851,1.7896,1.7924,1.7969,1.7996,1.7996,1.8007,1.8004,1.8009,1.7944,1.793,1.8006,1.8006,1.8006,1.8006,1.8006,1.8006,1.7525,1.7581,1.7592,1.7662,1.7684,1.7733,1.7754,1.7783,1.7809,1.787,1.7906,1.7924,1.7955,1.8002,1.8043,1.805,1.8066,1.8078,1.8084,1.8022,1.8014,1.8006,1.7993,1.8082,1.8082,1.8146,1.8147,1.8147]},{"header":{"parameterUnit":"m.s-1","parameterCategory":1,"la1":30.2991,"la2":30.254,"lo1":-89.0895,"lo2":-89.0444,"dy":0.0017,"dx":0.0017,"nx":28,"ny":28,"refTime":"2025-05-15T03:00:00:Z","depth":0,"parameterNumber":3,"parameterNumberName":"V-component_of_WINDS"},"data":[0,0,0,0,0,0,0,0,0,0,0,0,0,0,0,0,0,0,0,0,0,0,0,0,0,0,0,0,0,0,0,0,0,0,0,0,0,0,0,0,0,0,0,0,0,0,0,0,0,0,0,0,0,0,0,0,0,0,6.2178,6.218,0,6.2368,6.237,6.2372,6.2378,6.2375,6.2373,6.2371,6.256,6.2567,6.2574,0,0,0,0,0,0,0,0,0,0,0,0,0,6.1816,6.1822,6.2178,6.218,6.2183,6.2367,6.237,6.2372,6.2378,6.2375,6.2372,6.237,6.2558,6.2566,6.2575,0,0,0,0,0,0,0,0,0,0,0,0,0,6.1986,6.1824,6.2178,6.2208,6.2213,6.2367,6.237,6.2373,6.2379,6.2375,6.2372,6.2369,6.2555,6.2566,6.2576,6.2711,0,0,6.2609,6.2614,0,0,0,0,0,0,0,0,6.1976,6.1999,6.2201,6.2206,6.2212,6.2346,6.2311,6.2486,6.2379,6.2315,6.2371,6.2367,6.2491,6.2507,6.255,6.272,6.2728,6.261,6.2617,6.2621,6.2624,0,0,0,0,0,0,0,6.1964,6.1991,6.2253,6.2204,6.221,6.221,6.2231,6.2345,6.242,6.2321,6.2322,6.2344,6.2493,6.254,6.2554,6.2731,6.261,6.2619,6.2626,6.263,6.302,6.3024,0,0,0,0,0,0,6.1947,6.1981,6.2247,6.2259,6.2083,6.222,6.2242,6.2306,6.2419,6.2433,6.2347,6.2344,6.2523,6.2542,6.2561,6.2726,6.2621,6.2631,6.2637,6.3016,6.3021,6.3025,0,0,0,0,0,0,6.1939,6.1971,6.2239,6.212,6.2154,6.223,6.2301,6.2311,6.2358,6.2439,6.2452,6.2381,6.2521,6.2546,6.2674,6.2733,6.2636,6.2646,6.3012,6.3018,6.3023,6.3058,0,0,0,0,0,0,6.1929,6.1968,6.2022,6.2121,6.2161,6.2351,6.2305,6.2318,6.2377,6.2375,6.2474,6.2487,6.252,6.2658,6.2685,6.2746,6.2654,6.3007,6.3014,6.3021,6.3052,6.3064,6.3075,0,0,0,0,0,6.1916,6.2023,6.2024,6.2056,6.223,6.2354,6.2376,6.2414,6.2382,6.2435,6.2487,6.2484,6.2722,6.2671,6.2701,6.2767,6.3003,6.3012,6.3021,6.3047,6.3062,6.3075,0,0,0,0,0,0,6.1927,6.2037,6.2039,6.2182,6.2259,6.2355,6.2424,6.2429,6.2515,6.2509,6.255,6.2572,6.2699,6.2746,6.2687,6.2903,6.2859,6.2874,6.2868,6.2883,6.2894,6.2881,6.2663,0,0,0,0,0,6.1946,6.204,6.213,6.2248,6.2286,6.2348,6.2404,6.2426,6.2506,6.2538,6.26,6.2676,6.2768,6.2828,6.2918,6.3058,6.3079,6.3118,6.313,6.3139,6.3151,6.3228,6.3246,6.3054,6.3054,6.3054,0,0,6.1987,6.2058,6.2115,6.2252,6.2314,6.2408,6.2376,6.2477,6.2547,6.2553,6.2679,6.2726,6.2814,6.2949,6.3011,6.2991,6.3209,6.315,6.3157,6.3165,6.3239,6.3257,6.3273,6.306,6.3059,6.3058,0,0,6.2109,6.2173,6.2277,6.234,6.2435,6.2476,6.25,6.2596,6.2628,6.2754,6.2761,6.2843,6.3001,6.3064,6.3116,6.326,6.326,6.3288,6.3348,6.3423,6.3438,6.3451,6.3502,6.352,6.33,6.3301,6.3301,0,6.2147,6.2291,6.233,6.2432,6.2491,6.2503,6.2607,6.2666,6.2784,6.2824,6.28,6.2998,6.3059,6.3208,6.3243,6.3285,6.3313,6.3277,6.3433,6.3447,6.346,6.3509,6.3528,6.3303,6.3303,6.3303,6.3302,0,6.2333,6.2432,6.2505,6.2621,6.2688,6.2791,6.2843,6.2906,6.2922,6.2964,6.3092,6.3164,6.3268,6.3305,6.3321,6.3456,6.3441,6.3424,6.3381,6.3481,6.3527,6.3546,6.3307,6.3306,6.3305,6.3305,0,0,6.2468,6.2603,6.2629,6.2681,6.2786,6.2863,6.2965,6.3068,6.3121,6.3201,6.3287,6.342,6.3406,6.3465,6.3488,6.3553,6.3662,6.3529,6.3531,6.3551,6.3814,6.3826,6.3847,6.3662,6.3666,6.3669,6.3806,0,6.2601,6.2786,6.2823,6.2982,6.3074,6.3085,6.3174,6.3246,6.3288,6.3371,6.3416,6.351,6.3484,6.3519,6.3584,6.3635,6.3715,6.3625,6.3741,6.3745,6.3719,6.3871,6.3884,6.4011,6.3825,6.3828,6.383,0,6.2782,6.2868,6.3037,6.3128,6.3168,6.3248,6.3344,6.3423,6.3505,6.3531,6.3597,6.3612,6.3717,6.3668,6.3812,6.375,6.38,6.3831,6.3837,6.3849,6.3794,6.3887,6.4052,6.4071,6.386,6.3857,6.3855,0,6.2863,6.3021,6.3142,6.3186,6.3297,6.3352,6.34,6.3479,6.3538,6.3621,6.366,6.3754,6.3805,6.3877,6.3916,6.3877,6.4057,6.4012,6.408,6.4079,6.4118,6.4115,6.4293,6.415,6.4149,6.4149,6.4149,0,6.3008,6.311,6.318,6.3255,6.3369,6.341,6.3521,6.3568,6.3638,6.372,6.3735,6.3812,6.3859,6.3942,6.3974,6.4088,6.4111,6.4133,6.414,6.4132,6.4129,6.4165,6.4157,6.4154,6.4153,6.4152,6.4151,0,6.3118,6.3169,6.3302,6.3395,6.3421,6.3501,6.358,6.3652,6.3693,6.3797,6.3824,6.3889,6.3987,6.4033,6.4155,6.4176,6.4305,6.4306,6.4278,6.4281,6.4346,6.4339,6.4553,6.4583,6.442,6.4422,6.4423,0,6.3207,6.3287,6.3389,6.3446,6.3496,6.3587,6.3648,6.369,6.3752,6.385,6.391,6.4009,6.4091,6.4247,6.4303,6.4396,6.4399,6.4468,6.4413,6.4402,6.44,6.4395,6.4402,6.4478,6.4479,6.448,6.4481,0,6.336,6.3381,6.3469,6.3566,6.3638,6.3715,6.3791,6.3836,6.389,6.3959,6.406,6.4123,6.4248,6.4345,6.4442,6.4489,6.4494,6.4498,6.4519,6.4511,6.4492,6.4503,6.4305,6.4493,6.4492,6.4491,6.449,6.449,6.3463,6.3533,6.3616,6.3713,6.3775,6.3845,6.3917,6.3968,6.4053,6.4159,6.4178,6.4285,6.4363,6.4493,6.4544,6.4627,6.4611,6.4641,6.4649,6.4656,6.4659,6.4478,6.4645,6.4645,6.4644,6.4644,6.4644,0,6.3616,6.367,6.3758,6.3865,6.394,6.3939,6.4023,6.4086,6.4181,6.4254,6.4334,6.445,6.4544,6.4608,6.4704,6.4758,6.4762,6.4781,6.4778,6.4788,6.4668,6.4641,6.4776,6.4776,6.4776,6.4776,6.4776,6.4776,6.3705,6.3824,6.3855,6.4004,6.4056,6.4163,6.4211,6.4275,6.4334,6.4463,6.4542,6.4583,6.4653,6.4753,6.4839,6.4855,6.4889,6.4909,6.4924,6.4811,6.4797,6.4784,6.4758,6.4916,6.4916,6.5038,6.5039,6.504]}]]